Back to catalog

STARLINK-32396

AliveCommunicationsVLEO
NORAD 61633·PAYLOAD·🇺🇸 United States

Launched Oct 23, 2024 from Cape Canaveral Space Force Station

Loading…

Next Passes (next 24 hours)

TLE

FreshSource: CelesTrak SupGP

Epoch: Sep 14, 2026, 13:47 UTC

1 61633C 24191N   26257.57479167  .00017681  00000+0  64059-3 0  2570
2 61633  42.9998 171.3850 0001441 265.8310  45.4090 15.27560860    15

Track STARLINK-32396 in real time with AllMySat

Download on the App Store